Location: Washington
(38.8950°N, 77.0370°W)
Time: 02:22:33
(UTC-04:00)

Tiangong 1 - Visible Passes

Search period start: 23 March 2017 00:00
Search period end: 02 April 2017 00:00
Orbit: 334 x 358 km, 42.8° (Epoch: 21 March)

Date Brightness Start Highest point End Pass type
(mag) Time Alt. Az. Time Alt. Az. Time Alt. Az.
23 Mar 1.4 20:12:39 10° WNW 20:15:31 50° NNE 20:17:22 19° E visible
23 Mar 4.4 21:48:39 10° W 21:48:48 11° W 21:48:48 11° W visible
24 Mar 0.8 20:36:35 10° WNW 20:39:31 80° SSW 20:40:18 44° ESE visible
25 Mar 2.3 21:00:41 10° W 21:03:15 30° SSW 21:03:15 30° SSW visible
26 Mar 1.0 19:48:28 10° WNW 19:51:25 71° SSW 19:54:19 10° ESE visible
26 Mar 4.0 21:25:52 10° WSW 21:26:14 11° SW 21:26:14 11° SW visible
27 Mar 2.6 20:12:34 10° W 20:15:07 26° SSW 20:17:37 10° SSE visible
